Temperature
17 17 17 17 17 17 17 17 17 17 17 17 17 17 17 17 17 17 17 17 17 17 17 17 17 16 16 16 16 16 16 16 16 16 16 16 16 16 16 16 16 16 16
17 17 17 17 17 17 17 17 17 17 17 17 17 17 17 17 17 17 17 17 17 17 17 17 17 16 16 16 16 16 16 16 16 16 16 16 16 16 16 16 16 16 16
17 17 17 16 16 16 16 16 16 16 16 17 17 17 17 17 17 17 17 17 17 17 17 17 17 16 16 16 16 16 16 16 16 16 16 16 16 16 16 16 16 16 16
17 16 16 16 16 16 16 16 16 16 16 16 17 17 17 17 17 17 17 17 17 17 16 16 16 16 16 16 16 16 16 16 16 16 16 16 16 16 16 16 16 15 15
16 16 16 16 16 16 16 16 16 16 16 16 16 16 16 17 17 16 16 16 16 16 16 16 16 16 16 16 16 16 16 16 16 16 16 16 16 16 16 16 16 15 15
16 16 16 16 16 16 16 16 16 16 16 16 16 16 16 16 16 16 16 16 16 16 16 16 16 16 16 16 16 16 16 16 16 16 16 16 16 16 16 16 16 15 15
16 16 16 16 15 15 16 16 16 16 16 16 16 16 16 16 16 16 16 16 16 16 16 16 16 16 16 16 16 16 16 15 16 16 16 16 16 16 16 16 15 15 15
16 16 16 15 15 15 15 15 15 16 16 16 16 16 16 16 16 16 16 16 16 16 16 16 16 16 16 16 16 15 15 15 15 15 15 15 15 15 15 15 15 15 15
16 16 16 15 15 15 15 15 15 15 16 16 16 16 16 16 16 16 16 16 16 16 16 16 16 16 16 16 15 15 15 15 15 15 15 15 15 15 15 15 15 15 15
16 15 15 15 15 15 15 15 15 15 15 16 16 16 16 16 16 16 16 16 16 16 16 16 16 16 16 16 15 15 15 15 15 15 15 15 15 15 15 15 15 15 15
16 15 15 15 15 15 15 15 15 15 15 15 16 16 16 16 16 16 16 16 16 16 16 16 16 16 16 15 15 15 15 15 15 15 15 15 15 15 15 15 15 15 15
16 16 15 15 15 15 15 15 15 15 15 15 15 16 16 16 16 16 16 16 16 16 16 16 16 16 16 15 15 15 15 15 15 15 15 15 15 15 15 15 15 15 15
16 16 16 15 15 15 15 15 15 15 15 15 15 15 15 16 16 16 16 16 16 16 16 16 16 16 16 15 15 15 15 15 15 15 14 14 14 14 14 15 15 15 15
16 16 16 16 15 15 15 15 15 15 15 15 15 15 15 15 15 15 15 15 15 16 16 16 16 16 16 15 15 15 15 15 15 14 14 14 14 14 14 14 14 15 15
16 16 16 16 16 15 15 15 15 15 15 15 15 15 15 15 15 15 15 15 15 15 15 15 15 15 15 15 15 15 15 15 14 14 14 14 14 14 14 14 14 14 14
16 16 16 16 16 16 15 15 15 15 15 15 15 15 15 15 15 15 14 14 14 14 14 15 15 15 15 15 15 15 15 15 14 14 14 14 14 14 14 14 14 14 14
16 16 16 16 16 16 16 15 15 15 15 15 15 15 15 14 14 14 14 14 14 14 14 15 15 15 15 15 15 15 14 14 14 14 14 14 14 14 14 14 14 14 14
16 16 16 16 16 16 16 16 16 15 15 15 15 14 14 14 14 14 14 14 14 14 14 14 15 15 15 15 14 14 14 14 14 14 14 14 14 14 14 14 14 14 14
16 16 16 16 16 16 16 16 16 15 15 15 15 15 14 14 14 14 14 14 14 14 14 14 14 14 15 14 14 14 14 14 14 14 14 14 14 14 14 14 14 14 13
16 16 16 16 16 16 16 16 15 15 15 15 15 15 14 14 14 14 14 14 14 14 14 14 14 14 14 14 14 14 14 14 14 14 14 14 14 14 14 14 14 14 14
16 16 16 16 16 16 15 15 15 15 14 14 14 14 14 14 14 14 14 14 14 13 13 13 13 13 14 14 13 13 13 14 14 14 14 14 14 14 14 14 14 14 14
16 16 15 15 15 15 15 14 14 14 14 14 13 13 13 13 13 13 13 13 13 13 12 12 13 13 13 13 12 12 12 12 13 14 14 14 14 14 14 14 14 14 14
15 15 15 14 14 14 13 13 13 13 13 13 12 12 12 12 12 12 12 12 12 12 11 11 11 11 11 11 11 11 11 11 11 12 12 12 13 13 14 14 14 14 14
14 14 13 13 13 12 12 12 12 12 12 12 12 11 11 11 11 11 11 11 11 11 11 11 11 10 10 10 10 10 10 10 11 11 11 11 12 12 13 13 13 13 13
13 13 12 12 12 12 11 11 11 11 11 11 11 10 10 10 10 10 10 10 10 10 10 10 10 10 10 10 9 9 9 9 9 10 10 10 11 11 11 12 13 13 13
12 12 11 11 11 11 10 10 10 10 10 10 10 9 9 9 9 9 9 9 9 9 9 9 9 8 8 8 8 8 8 8 8 7 8 8 9 8 9 10 11 12 12
Wind_Speed
3 3 2 2 1 1 2 1 1 1 2 2 2 2 3 4 5 4 4 7 8 9 9 11 11 11 12 12 12 12 11 11 11 11 10 10 10 9 9 9 8 8 8
4 3 3 2 2 2 2 2 1 1 1 1 1 2 2 3 4 4 4 5 6 7 8 10 11 11 12 12 12 12 12 12 12 12 11 11 10 10 9 9 9 8 8
7 5 3 2 2 3 3 3 2 2 1 1 1 1 1 1 2 3 3 3 4 6 8 9 10 11 11 12 13 13 13 13 13 13 12 12 12 11 10 10 9 9 9
8 6 4 2 3 4 4 2 2 2 1 1 0 1 0 0 0 1 2 2 3 3 6 8 10 11 12 12 12 13 14 14 14 14 14 13 13 13 12 12 11 11 10
8 7 4 3 4 4 2 2 2 2 2 1 1 1 1 1 1 1 1 2 3 3 5 7 9 11 12 12 12 12 14 14 15 15 15 14 14 14 14 13 13 13 12
8 8 5 5 5 3 3 2 3 3 2 2 2 3 2 2 1 1 2 2 3 4 5 6 7 8 10 12 12 13 13 14 15 15 15 15 15 16 16 16 15 15 14
8 8 5 4 4 3 3 3 2 3 3 2 3 3 3 3 2 1 1 1 2 3 4 5 6 6 7 9 12 13 13 13 14 15 16 16 16 17 17 17 17 17 16
8 7 6 4 4 3 4 3 2 2 2 2 2 3 2 3 3 2 1 1 1 1 3 4 6 6 6 6 8 11 13 13 13 14 15 16 17 17 17 18 18 18 18
6 7 7 5 4 3 3 2 3 4 3 2 1 3 3 3 1 2 2 1 1 1 1 2 4 5 6 7 7 8 10 12 13 13 14 15 16 17 18 18 19 19 19
5 6 7 6 4 3 3 2 2 2 3 2 1 2 2 2 2 0 2 1 2 1 1 2 2 4 6 6 7 9 9 10 11 11 11 12 14 15 16 17 18 19 20
4 5 6 6 4 3 4 3 3 2 2 3 2 2 2 2 2 2 1 2 2 1 2 2 2 3 4 6 6 8 8 9 9 9 10 11 11 12 14 15 16 17 19
2 3 5 5 5 4 4 3 3 3 2 3 2 2 2 2 2 2 2 1 1 2 2 2 3 3 4 5 7 8 8 9 9 9 8 9 9 11 12 13 14 16 16
3 5 4 4 4 4 5 4 3 3 3 3 3 2 2 2 2 2 2 1 1 2 2 2 2 4 5 6 7 8 9 9 9 9 9 9 9 9 10 11 12 13 14
5 5 5 6 6 6 5 5 3 3 3 3 3 3 2 2 2 2 3 3 1 1 2 3 2 3 4 6 8 9 8 10 11 11 10 10 10 10 11 11 12 12 13
4 5 6 6 6 6 6 5 4 4 4 3 3 3 2 2 2 2 2 3 3 2 2 3 2 2 3 5 7 7 9 11 13 13 13 13 13 13 13 13 13 14 14
5 5 6 6 6 6 6 6 4 4 5 4 3 4 3 2 2 2 2 2 3 3 3 2 3 2 3 5 6 8 10 13 14 15 16 16 17 17 16 16 16 16 16
6 6 6 6 6 7 6 6 6 5 6 5 4 5 5 4 3 3 3 3 3 3 4 4 3 3 3 4 5 6 8 10 11 16 18 19 20 20 20 20 19 19 18
5 6 5 5 6 6 7 8 7 7 7 7 6 6 6 4 5 4 4 4 4 5 5 6 4 3 5 4 5 5 7 9 10 15 19 21 22 22 23 23 22 21 21
4 4 4 5 6 6 7 7 7 7 7 7 7 7 6 5 6 5 5 5 5 5 5 6 6 3 4 4 4 5 6 7 9 13 16 19 22 23 24 24 24 24 23
4 4 3 3 3 3 4 5 5 6 6 6 6 6 5 5 6 6 5 6 5 5 5 6 7 6 5 5 4 5 7 6 7 9 12 14 17 20 22 24 24 24 24
3 3 2 1 1 1 1 3 3 3 3 3 2 3 2 3 3 3 3 4 4 5 5 6 7 6 7 5 5 4 7 9 8 7 8 9 10 11 14 17 21 23 24
3 4 4 3 3 2 3 2 2 2 2 2 1 2 2 3 3 3 2 1 1 3 4 4 6 7 8 6 5 6 7 8 8 4 5 8 7 9 11 13 17 21 23
6 6 6 6 6 5 7 6 6 4 4 4 3 3 3 4 4 2 3 3 2 2 3 4 6 7 7 6 6 8 8 9 11 8 8 12 11 13 12 16 20 23 25
6 7 7 7 7 7 9 9 8 7 6 6 5 5 4 4 5 4 3 4 4 4 5 4 5 7 7 7 7 8 10 11 11 10 8 11 12 13 13 15 19 24 26
8 8 7 8 8 8 10 9 8 5 5 5 5 5 4 4 6 7 4 5 6 5 6 7 8 10 13 14 11 7 8 8 10 9 7 8 11 12 13 13 15 21 25
8 8 9 8 8 8 10 10 8 5 5 4 3 4 5 5 7 7 4 4 6 7 7 8 8 9 9 11 11 8 8 9 9 8 5 6 9 8 9 8 9 11 14
Wind_Direction
144 132 124 136 156 158 154 153 161 158 125 137 181 184 185 176 170 168 180 187 186 186 185 183 186 188 184 182 180 180 181 180 178 176 176 174 173 173 170 169 167 165 164
140 129 118 125 127 145 153 150 147 139 127 148 199 214 203 184 181 180 185 194 195 193 191 193 194 198 196 192 190 187 188 188 187 187 186 184 185 185 184 181 180 178 177
137 130 120 114 116 131 126 109 99 92 104 142 203 247 228 199 181 186 191 193 202 204 202 205 204 205 205 202 201 197 195 196 196 195 195 195 195 196 196 193 193 192 191
138 127 117 111 116 117 112 107 94 89 81 110 178 272 279 277 163 184 190 194 204 207 214 219 217 214 213 213 212 208 205 204 203 202 202 202 204 205 206 205 204 203 202
134 127 119 115 117 106 99 114 83 94 100 101 130 55 17 360 344 295 244 226 219 222 227 230 228 225 223 222 221 218 215 212 210 209 209 209 210 212 212 213 214 212 211
132 124 115 109 111 101 91 87 89 71 80 89 87 65 30 8 10 351 297 264 243 237 234 232 231 233 232 230 226 225 222 219 217 216 216 216 216 216 217 219 221 220 219
134 125 116 105 106 108 111 107 98 80 57 52 82 52 23 24 34 8 324 277 259 249 234 228 225 226 234 237 234 230 228 226 225 222 222 222 222 221 221 222 225 226 225
140 133 126 121 115 110 97 96 112 105 65 47 110 100 47 5 5 10 345 290 280 270 236 229 222 221 224 231 238 237 233 230 230 228 227 226 228 228 226 227 228 229 230
147 139 137 131 126 123 122 115 126 129 124 66 64 137 143 201 294 339 2 6 342 301 264 242 224 223 221 225 234 240 240 236 233 234 233 231 231 233 233 232 232 231 231
150 147 143 142 138 136 137 142 128 131 134 133 84 60 103 144 148 341 336 350 343 300 285 272 253 233 226 227 234 239 240 237 235 235 234 234 234 235 237 238 237 235 233
151 154 151 150 148 147 147 136 124 125 128 144 148 132 104 79 91 143 218 318 339 320 295 275 275 256 238 232 235 237 234 231 233 235 236 238 238 238 239 240 241 241 238
160 169 165 162 162 158 159 153 141 133 129 129 132 138 148 149 160 149 167 224 280 304 310 286 259 253 246 238 239 240 234 229 230 232 236 242 245 245 246 247 247 246 245
193 196 179 176 177 180 172 158 152 154 151 144 145 140 143 152 152 148 145 158 246 301 314 297 266 257 253 245 246 245 240 232 230 231 236 242 248 251 254 255 256 254 251
200 193 188 190 191 185 178 168 164 173 165 162 161 154 150 162 166 164 158 149 148 306 304 286 298 262 256 251 252 249 245 239 235 235 238 244 249 254 259 262 264 263 261
199 194 195 196 194 189 182 174 184 187 175 183 185 182 184 192 182 179 167 163 160 206 263 277 283 290 275 262 258 246 245 245 244 244 246 249 252 255 258 262 264 264 264
201 193 199 201 199 195 188 185 193 196 189 198 196 195 207 212 203 194 186 184 179 184 229 256 256 276 287 280 265 248 249 252 253 252 252 253 256 257 259 260 261 262 262
203 204 204 202 204 202 194 193 203 198 203 210 206 207 220 212 210 209 201 194 196 189 228 261 247 260 265 269 276 261 256 254 256 257 257 257 258 258 258 260 260 260 259
207 205 197 197 205 206 199 199 206 204 207 215 216 213 225 217 218 216 208 212 213 208 221 255 259 251 251 260 265 268 264 259 255 260 259 259 259 258 257 257 258 259 259
200 195 190 199 208 206 204 207 207 207 208 215 214 214 224 218 230 229 222 227 230 227 224 245 266 256 258 257 266 270 268 265 264 262 260 260 259 258 257 256 255 256 257
176 182 193 199 204 202 207 210 210 217 221 225 222 221 229 228 239 242 238 239 238 238 235 245 264 270 268 264 257 270 280 273 271 271 264 262 260 258 257 255 254 254 254
160 153 139 141 161 166 204 200 205 210 216 236 242 228 230 236 244 245 251 253 246 249 252 257 268 276 278 274 272 272 279 286 279 265 267 265 262 262 262 259 255 254 252
91 89 87 75 61 56 59 99 135 120 112 106 59 49 54 37 31 34 20 358 304 258 263 262 270 276 283 283 283 280 283 287 287 264 262 275 266 265 263 260 255 252 252
79 78 78 82 78 63 67 74 84 90 83 78 75 64 59 46 38 13 357 352 330 307 280 265 273 279 286 292 296 290 280 274 272 278 282 281 274 270 268 264 255 251 251
79 81 77 79 79 65 68 76 82 82 80 73 68 67 63 35 23 9 357 349 329 314 298 282 270 276 281 283 277 278 280 280 274 269 260 272 276 272 273 267 258 252 251
79 74 69 66 68 56 55 68 77 77 75 65 54 46 40 30 11 9 1 338 324 317 312 306 296 291 288 286 283 281 277 277 282 279 257 261 276 278 277 272 263 253 250
84 80 71 62 64 59 53 60 71 74 69 53 40 29 22 6 354 357 350 333 319 315 320 320 313 308 301 296 291 272 269 274 280 283 261 255 278 288 285 272 267 268 264
Height
1554 1555 1556 1558 1559 1560 1561 1562 1562 1563 1564 1565 1566 1567 1569 1570 1571 1572 1573 1574 1576 1577 1578 1580 1581 1583 1585 1586 1588 1589 1591 1592 1593 1594 1596 1597 1598 1599 1600 1601 1602 1603 1604
1554 1555 1556 1557 1558 1559 1560 1561 1562 1563 1564 1564 1566 1567 1568 1570 1571 1572 1573 1574 1576 1577 1578 1580 1581 1583 1585 1586 1588 1589 1590 1592 1593 1594 1596 1597 1598 1599 1600 1601 1602 1603 1604
1553 1554 1556 1557 1558 1559 1559 1560 1561 1562 1563 1564 1565 1566 1568 1569 1570 1571 1573 1574 1575 1577 1578 1580 1581 1582 1584 1586 1587 1588 1590 1591 1593 1594 1595 1597 1598 1599 1600 1601 1602 1603 1604
1553 1554 1555 1556 1557 1558 1559 1560 1561 1562 1563 1564 1565 1566 1567 1568 1569 1571 1572 1573 1575 1576 1578 1579 1580 1582 1583 1585 1586 1587 1589 1590 1592 1593 1594 1596 1597 1598 1599 1600 1601 1602 1603
1553 1554 1555 1556 1557 1558 1559 1560 1561 1562 1562 1563 1564 1566 1567 1568 1569 1570 1571 1573 1574 1575 1577 1578 1579 1580 1582 1584 1585 1586 1587 1589 1590 1592 1593 1595 1596 1597 1598 1599 1600 1601 1602
1552 1553 1554 1555 1557 1558 1559 1560 1561 1562 1562 1563 1564 1566 1567 1568 1569 1570 1571 1572 1573 1575 1576 1577 1578 1579 1581 1582 1583 1584 1586 1587 1588 1590 1591 1593 1594 1595 1596 1598 1599 1600 1601
1552 1553 1554 1555 1556 1557 1558 1559 1560 1561 1562 1563 1564 1566 1567 1568 1569 1570 1571 1571 1573 1574 1575 1576 1577 1578 1579 1580 1581 1583 1584 1585 1586 1588 1589 1590 1592 1593 1594 1595 1597 1598 1599
1552 1552 1553 1554 1556 1557 1558 1559 1560 1561 1562 1563 1565 1565 1567 1569 1569 1569 1570 1571 1572 1573 1574 1575 1576 1577 1578 1579 1580 1581 1582 1583 1584 1585 1586 1587 1589 1590 1591 1593 1594 1595 1596
1551 1552 1553 1554 1555 1556 1557 1558 1559 1560 1562 1563 1564 1566 1566 1567 1568 1569 1569 1570 1571 1572 1573 1574 1575 1576 1576 1577 1578 1579 1579 1580 1581 1582 1583 1584 1585 1586 1588 1589 1590 1591 1593
1551 1552 1552 1553 1554 1555 1556 1557 1558 1560 1561 1562 1563 1564 1565 1566 1567 1568 1569 1569 1570 1571 1572 1573 1573 1574 1575 1575 1576 1577 1577 1578 1579 1579 1580 1581 1582 1583 1584 1585 1586 1587 1588
1551 1551 1552 1553 1554 1555 1556 1557 1558 1559 1560 1561 1562 1563 1564 1565 1566 1567 1567 1568 1569 1570 1571 1571 1572 1573 1573 1574 1574 1575 1575 1576 1576 1577 1577 1578 1578 1579 1580 1581 1582 1583 1584
1550 1551 1552 1553 1554 1554 1555 1556 1557 1558 1559 1560 1561 1562 1563 1564 1564 1565 1566 1566 1567 1569 1569 1570 1570 1571 1572 1572 1572 1573 1573 1574 1574 1574 1575 1575 1575 1575 1576 1576 1577 1578 1579
1549 1550 1551 1552 1553 1554 1554 1555 1556 1557 1558 1559 1560 1561 1561 1562 1563 1564 1564 1565 1565 1566 1567 1568 1568 1569 1570 1570 1570 1571 1571 1571 1572 1572 1572 1572 1572 1572 1572 1572 1572 1573 1574
1549 1550 1551 1552 1552 1553 1554 1554 1555 1555 1556 1557 1558 1559 1560 1561 1561 1562 1563 1563 1563 1564 1564 1565 1565 1566 1567 1567 1568 1568 1568 1569 1569 1569 1569 1569 1569 1568 1568 1568 1568 1568 1569
1547 1549 1550 1551 1551 1552 1553 1553 1553 1554 1555 1555 1556 1557 1558 1559 1559 1560 1560 1561 1562 1561 1561 1562 1562 1563 1563 1564 1564 1565 1565 1565 1565 1565 1565 1565 1565 1564 1564 1563 1563 1563 1563
1546 1547 1548 1549 1550 1551 1551 1552 1552 1553 1553 1554 1554 1555 1556 1557 1557 1557 1558 1558 1558 1559 1558 1558 1559 1560 1560 1560 1560 1560 1561 1561 1561 1561 1561 1561 1560 1560 1559 1559 1558 1558 1558
1543 1545 1546 1547 1548 1549 1549 1549 1550 1550 1551 1552 1552 1553 1553 1554 1554 1555 1555 1555 1555 1556 1555 1555 1555 1556 1556 1556 1556 1556 1556 1556 1556 1556 1556 1556 1555 1555 1554 1554 1553 1553 1552
1541 1542 1543 1544 1545 1546 1546 1547 1547 1547 1548 1549 1549 1550 1551 1551 1551 1552 1552 1552 1552 1552 1551 1550 1550 1551 1551 1551 1551 1551 1551 1550 1550 1550 1550 1550 1549 1549 1548 1548 1548 1547 1547
1538 1539 1540 1541 1541 1542 1543 1543 1544 1544 1544 1545 1546 1546 1547 1547 1547 1548 1548 1548 1548 1548 1547 1546 1545 1545 1545 1546 1545 1545 1545 1544 1544 1544 1543 1543 1543 1542 1542 1542 1541 1541 1541
1534 1535 1536 1537 1538 1538 1539 1539 1539 1540 1540 1541 1541 1542 1542 1543 1543 1543 1543 1543 1543 1543 1542 1541 1540 1539 1539 1539 1539 1538 1537 1537 1537 1537 1536 1536 1535 1535 1535 1534 1534 1534 1534
1531 1532 1533 1533 1534 1534 1534 1534 1535 1535 1535 1536 1536 1537 1537 1538 1537 1538 1538 1537 1537 1537 1536 1535 1534 1533 1533 1533 1532 1531 1529 1528 1528 1528 1527 1527 1527 1526 1526 1526 1526 1526 1526
1527 1528 1528 1529 1529 1529 1529 1530 1530 1531 1531 1531 1532 1532 1532 1532 1532 1532 1531 1531 1531 1530 1530 1529 1528 1527 1526 1526 1525 1524 1522 1520 1518 1519 1518 1517 1518 1516 1516 1517 1517 1517 1517
1523 1524 1524 1525 1525 1525 1526 1526 1526 1527 1527 1527 1528 1527 1527 1527 1527 1527 1526 1526 1525 1524 1523 1523 1521 1520 1519 1518 1517 1515 1514 1512 1510 1511 1509 1505 1506 1505 1506 1505 1506 1506 1506
1521 1522 1522 1522 1523 1523 1523 1524 1524 1524 1524 1524 1524 1523 1523 1523 1522 1522 1521 1520 1519 1518 1517 1516 1515 1513 1512 1511 1510 1508 1506 1503 1501 1501 1501 1496 1495 1494 1494 1493 1494 1494 1494
1520 1520 1521 1522 1522 1522 1522 1522 1522 1522 1522 1522 1521 1520 1519 1519 1518 1516 1515 1514 1513 1512 1510 1509 1507 1506 1504 1503 1502 1500 1498 1495 1491 1490 1491 1488 1485 1483 1481 1480 1481 1481 1482
1520 1520 1521 1522 1522 1521 1522 1521 1521 1521 1520 1519 1518 1518 1516 1515 1513 1511 1510 1508 1506 1504 1503 1501 1500 1498 1497 1495 1494 1493 1490 1487 1483 1480 1480 1480 1476 1475 1469 1468 1469 1470 1469